Home > Weather > Cairo > Past weeks

Flag for Egypt Past Weather in Cairo, Egypt — Yesterday and Last 2 Weeks

Now
95 °F

Sunny.


Feels Like: 94 °F
Forecast: 72 / 102 °F
Wind: 9 mph from Northwest

Location: Cairo Airport

Current Time: Jun 30, 2016 at 2:34:17 PM

Latest Report: Jun 30, 2016 at 2:00 PM


Visibility: 10 mi

Pressure: 29.86 "Hg

Humidity: 30%

Dew Point: 59 °F

Location of CairoLocation

Past Weather in Cairo — Graph

°F

Cairo Temperature Yesterday

Maximum temperature yesterday: 99 °F (at 5:00 PM)
Minimum temperature yesterday: 77 °F (at 6:00 AM)
Average temperature yesterday: 87 °F

High & Low Weather Summary for the Past Weeks

 TemperatureHumidityPressure
High102 °F (Jun 25, 3:00 PM)94% (Jun 18, 9:30 AM)29.89 "Hg (Jun 18, 9:30 AM)
Low73 °F (Jun 16, 1:30 AM)21% (Jun 25, 3:00 PM)29.68 "Hg (Jun 24, 3:00 PM)
Average87 °F54%29.80 "Hg
* Reported Jun 15 1:00 PM — Jun 30 1:00 PM, Cairo, Weather by CustomWeather, © 2016

Note: Actual official high and low records may vary slightly from our data, if they occured in-between our weather recording intervals... More about our weather records

Advertising

Cairo Weather History for the Previous 24 Hours

Scroll right to see more
 ConditionsComfort  
Time TempWeatherWind HumidityBarometerVisibility
1:00 PM
Thu, Jun 30
95 °FSunny.8 mph30%29.86 "Hg10 mi
12:30 PM93 °FSunny.8 mph28%29.89 "Hg10 mi
12:00 PM91 °FSunny.6 mph34%29.89 "Hg10 mi
11:00 AM90 °FSunny.7 mph49%29.89 "Hg10 mi
10:30 AM88 °FClear.6 mph55%29.89 "Hg4 mi
10:00 AM88 °FClear.6 mph55%29.89 "Hg4 mi
9:30 AM84 °FClear.2 mph62%29.89 "Hg4 mi
9:00 AM84 °FFog.2 mph62%29.89 "Hg2 mi
8:30 AM81 °FFog.5 mph79%29.89 "Hg2 mi
8:00 AM81 °FFog.5 mph79%29.89 "Hg2 mi
7:30 AM79 °FFog.3 mph84%29.89 "Hg2 mi
7:00 AM79 °FFog.3 mph84%29.89 "Hg2 mi
6:30 AM77 °FFog.5 mph89%29.86 "Hg2 mi
6:00 AM77 °FFog.5 mph89%29.86 "Hg2 mi
5:30 AM77 °FFog.8 mph94%29.86 "Hg2 mi
5:00 AM77 °FFog.8 mph94%29.86 "Hg2 mi
4:30 AM79 °FFog.8 mph89%29.86 "Hg2 mi
4:00 AM77 °FFog.9 mph89%29.86 "Hg2 mi
3:30 AM81 °FFog.7 mph89%29.83 "Hg2 mi
3:00 AM81 °FFog.7 mph89%29.83 "Hg2 mi
2:00 AM82 °FClear.7 mph84%29.83 "Hg4 mi
1:00 AM82 °FClear.8 mph84%29.83 "Hg10 mi
12:00 AM84 °FClear.10 mph79%29.86 "Hg10 mi
11:00 PM
Wed, Jun 29
86 °FClear.9 mph66%29.86 "Hg10 mi
10:00 PM88 °FClear.12 mph59%29.86 "Hg10 mi
9:00 PM90 °FClear.13 mph46%29.83 "Hg10 mi
8:00 PM93 °FClear.14 mph44%29.80 "Hg10 mi
7:30 PM93 °FClear.14 mph39%29.80 "Hg10 mi
7:00 PM95 °FClear.13 mph39%29.80 "Hg10 mi
6:30 PM95 °FSunny.12 mph36%29.80 "Hg10 mi
6:00 PM97 °FSunny.10 mph34%29.77 "Hg10 mi
5:30 PM97 °FSunny.8 mph32%29.77 "Hg10 mi
5:00 PM99 °FSunny.9 mph31%29.77 "Hg10 mi
4:00 PM97 °FSunny.7 mph30%29.77 "Hg10 mi
3:00 PM97 °FSunny.8 mph28%29.77 "Hg10 mi
2:30 PM97 °FSunny.9 mph27%29.77 "Hg10 mi
2:00 PM97 °FSunny.12 mph32%29.80 "Hg10 mi
Weather by CustomWeather, © 2016

See weather overviewHow to use our weather pages